Regional Weather Roundup
Issued by NWS

Home | Current Version | Previous Version | Text Only | Print | Product List | Glossary On
Versions: 1 2 3 4 5 6 7 8 9 10 11 12 13 14 15 16 17 18 19 20 21 22 23 24 25 26 27 28 29 30 31 32 33 34 35 36 37 38 39 40 41 42 43 44 45 46 47 48 49 50
000
ASUS43 KMPX 301301
RWRMN
WEATHER ROUNDUP FOR MINNESOTA
NATIONAL WEATHER SERVICE TWIN CITIES/CHANHASSEN MN
800 AM CDT FRI SEP 30 2016


NOTE: "FAIR" INDICATES FEW OR NO CLOUDS BELOW 12,000 FEET WITH NO
SIGNIFICANT WEATHER AND/OR OBSTRUCTIONS TO VISIBILITY. N/A MEANS
CURRENT SKY AND/OR WEATHER CONDITIONS ARE NOT AVAILABLE.

MNZ060>063-068>070-301400-
   Twin Cities Metro

CITY           SKY/WX    TMP DP  RH WIND       PRES   REMARKS
TWIN CITIES    MOCLDY    51  49  92 NE6       30.37F FOG
ST PAUL        CLEAR     51  49  92 N3        30.39S
CRYSTAL        FOG       49  47  93 N6        30.37F VSB 1/4
BLAINE         FOG       50  50 100 N6        30.38F VSB 1/4
LAKEVILLE      CLEAR     48  48 100 CALM      30.37R FOG
EDEN PRAIRIE   FOG       51  49  92 N7        30.36S VSB 1/4
LAKEVILLE      CLEAR     48  48 100 CALM      30.37R FOG
SOUTH ST PAUL  PTCLDY    51  50  97 N5        30.37S
LAKE ELMO      FAIR      50  50 100 CALM      30.39R
$$
MNZ001>005-007-008-013>017-022>024-027-028-301400-
   Northwest Minnesota

CITY           SKY/WX    TMP DP  RH WIND       PRES   REMARKS
BEMIDJI        FOG       47  47 100 SE8       30.39S VSB 1/4
HALLOCK        PTCLDY    48  45  87 SE8       30.32F
ROSEAU         HAZE      48  43  81 SE3       30.37S VSB 1/2
WARROAD        CLOUDY    52  46  82 SE6       30.39S
THIEF RVR FALL CLEAR     44  43  96 SE8       30.36S
CROOKSTON      CLEAR     46  46 100 SE8       30.34F
FOSSTON        CLEAR     45  43  93 SE5       30.37S FOG
DETROIT LAKES  DRZL/FOG  46  46 100 SE10      30.38S VSB 1/4
MOORHEAD       CLEAR     48  46  93 SE6       30.34F
PARK RAPIDS    FOG       49  47  93 E8        30.39S VSB 1/4
MAHNOMEN       FOG       47  47  99 SE6       30.36S VSB 1
$$
MNZ006-009>011-018-025>026-301400-
   North Central Minnesota

CITY           SKY/WX    TMP DP  RH WIND       PRES   REMARKS
BAUDETTE       CLEAR     47  45  93 SE8       30.41F
FLAG ISLAND    CLOUDY    55  48  76 SE7       30.37F
INTL FALLS     FOG       45  44  97 SE8       30.44R VSB 1/4
WASKISH        FOG       43  43 100 E7        30.41S VSB 1/4
BIG FORK       FOG       48  48 100 CALM      30.43S VSB 3/4
GRAND RAPIDS   CLOUDY    50  49  96 SE6       30.45S FOG
ORR            CLOUDY    48  46  93 CALM      30.42F FOG
COOK           CLOUDY    48  48 100 SE3       30.46R FOG
WALKER         FOG       47  47  99 SE8       30.41S VSB 1
$$
MNZ012-019>021-037-301400-
   Northeast Minnesota

CITY           SKY/WX    TMP DP  RH WIND       PRES   REMARKS
DULUTH         CLOUDY    51  50  96 E8        30.43F
ELY            CLOUDY    48  46  93 CALM      30.46S
HIBBING        CLOUDY    49  48  97 SE6       30.45R
EVELETH        CLOUDY    51  49  95 SE3       30.46S
DULUTH HARBOR  CLOUDY    55  52  88 NE10      30.45S
TWO HARBORS    CLOUDY    54  48  82 NE3       30.43F
SILVER BAY     CLOUDY    54  52  94 CALM      30.43F
GRAND MARAIS     N/A     55  52  89 VRB6      30.45F
G MARAIS ARPRT CLOUDY    43  41  93 CALM      30.47S FOG
$$
MNZ029>031-032-039>041-046>048-054>057-064-301400-
   West Central Minnesota

CITY           SKY/WX    TMP DP  RH WIND       PRES   REMARKS
FERGUS FALLS   CLEAR     48  48 100 E5        30.38R
MORRIS         CLEAR     46  45  93 SE5       30.35R FOG
ALEXANDRIA     FOG       48  48 100 E8        30.39R VSB 1/4
ELBOW LAKE     FOG       46  46 100 SE9       30.36S VSB<1/4
WADENA         DRZL/FOG  46  46 100 SE7       30.39S VSB<1/4
GLENWOOD       FOG       46  45  93 E7        30.39R VSB<1/4
BENSON         FOG       46  45  93 SE6       30.37R VSB 1/4
ORTONVILLE       N/A     43  41  93 CALM      30.36R FOG
MADISON        FOG       43  43 100 CALM      30.36R VSB 1/4
WILLMAR        MOCLDY    48  48 100 E7        30.38S FOG
$$
MNZ033>034-036-042>043-049>051-058-059-301400-
   Central Minnesota

CITY           SKY/WX    TMP DP  RH WIND       PRES   REMARKS
ST CLOUD       CLOUDY    50  50 100 E6        30.39F FOG
SAUK CENTRE    FOG       47  47 100 E7        30.39S VSB 1/4
PAYNESVILLE    FOG       49  49 100 E3        30.39F VSB 1/4
AITKIN         CLOUDY    52  46  82 E3        30.41F HAZE
PINE RIVER     FOG       50  50 100 SE6       30.43S VSB 1
BRAINERD       CLOUDY    51  50  96 CALM      30.41F
STAPLES        FOG       46  46 100 E5        30.40S VSB 1/2
LONG PRAIRIE   SNOW      46  46 100 E6        30.40S VSB 1/4
LITTLE FALLS   CLOUDY    48  46  93 E3        30.41S FOG
LITCHFIELD     DRZL/FOG  52  52 100 E5        30.38F VSB<1/4
BUFFALO        FOG       50  48  95 NE5       30.39F VSB 1/4
MAPLE LAKE     FOG       51  51  99 NE5       30.40S VSB 1/4
HUTCHINSON     FOG       50  50 100 NE6       30.38F VSB 1/4
$$
MNZ037-044-045-052-053-301400-
   East Central Minnesota

CITY           SKY/WX    TMP DP  RH WIND       PRES   REMARKS
PRINCETON      CLOUDY    52  52 100 NE3       30.40S FOG
MORA           CLOUDY    50  50 100 E3        30.43S
CAMBRIDGE      CLOUDY    54  50  87 N6        30.38F FOG
MOOSE LAKE     CLOUDY    50  46  87 CALM      30.41F
HINCKLEY       CLOUDY    50  50 100 CALM      30.42F
CLOQUET        CLOUDY    52  48  87 E5        30.43S
MCGREGOR       CLOUDY    50  48  93 E3        30.43F
$$
MNZ071>073-080-081-089-090-097-098-301400-
   Southwest Minnesota

CITY           SKY/WX    TMP DP  RH WIND       PRES   REMARKS
MONTEVIDEO     CLEAR     46  46 100 S6        30.38R FOG
GRANITE FALLS  CLEAR     48  47  99 E3        30.38R FOG
CANBY          PTCLDY    39  39  99 CALM      30.37R
MARSHALL       FOG       42  42 100 SE3       30.36S VSB 1/4
REDWOOD FALLS  FOG       47  46  97 NE6       30.36S VSB 3/4
OLIVIA         FOG       46  45  93 NE3       30.36S VSB 1/4
PIPESTONE      CLEAR     48  45  87 E5        30.34S
WINDOM           N/A     45  45 100 CALM      30.35S FOG
WORTHINGTON    CLEAR     42  41  96 NW3       30.36R
JACKSON          N/A     43  41  93 CALM      30.35R FOG
TRACY          FOG       46  46 100 CALM      30.36S VSB 1/4
$$
MNZ065>067-074>077-082>085-091>093-301400-
   South Central Minnesota

CITY           SKY/WX    TMP DP  RH WIND       PRES   REMARKS
MANKATO        CLEAR     54  51  90 NE6       30.35F
NEW ULM        FOG       48  48 100 NE3       30.35F VSB 1/4
ST JAMES       FOG       43  43 100 CALM      30.35F VSB<1/4
FAIRMONT       FOG       44  44 100 N5        30.35S VSB 1/4
GLENCOE        FOG       49  49 100 N3        30.36F VSB 1/4
FARIBAULT      DRZL/FOG  48  48 100 NE3       30.36R VSB<1/4
OWATONNA       FOG       45  43  93 CALM      30.35S VSB<1/4
WASECA         CLEAR     50  50 100 NE6       30.35F
ALBERT LEA     CLEAR     50  50 100 NE3       30.34S FOG
$$
MNZ078>079-086>088-094>096-301400-
   Southeast Minnesota

CITY           SKY/WX    TMP DP  RH WIND       PRES   REMARKS
ROCHESTER      LGT RAIN  51  50  96 NE6       30.35R FOG
RED WING       CLEAR     52  48  87 SE6       30.36R
STANTON        FOG       45  43  95 CALM      30.35S VSB<1/4
DODGE CENTER   MOCLDY    48  48 100 NE5       30.35S FOG
WINONA         CLEAR     52  50  93 NW6       30.34F
AUSTIN         CLEAR     50  48  93 NE5       30.33S
PRESTON        PTCLDY    50  48  93 N8        30.33F
$$
ABBREVIATIONS USED IN REMARKS
   TC - TEMPERATURES IN CELSIUS
  WCI - WIND CHILL INDEX
   HX - HEAT INDEX
  VSB - VISIBILITY
$$




USA.gov is the U.S. government's official web portal to all federal, state and local government web resources and services.